| time (UTC) | temp F | wind direction | speed knots | gust knots | rain 1hr in | rain 24hr in | rain mn in | humidity % | barometer mb |
| 20260510021147 | 61 | 59 | 1.7 | 2.6 | 0.00 | 0.00 | 0.00 | 78 | 1008.8 |
| 20260510020644 | 61 | 176 | 0.0 | 2.6 | 0.00 | 0.00 | 0.00 | 78 | 1008.8 |
| 20260510020145 | 61 | 29 | 1.7 | 2.6 | 0.00 | 0.00 | 0.00 | 78 | 1008.7 |
| 20260510015148 | 61 | 173 | 0.0 | 2.6 | 0.00 | 0.00 | 0.00 | 78 | 1009.2 |
| 20260510014646 | 61 | 269 | 0.0 | 2.6 | 0.00 | 0.00 | 0.00 | 78 | 1008.9 |
| 20260510014145 | 60 | 134 | 0.0 | 0.9 | 0.00 | 0.00 | 0.00 | 78 | 1008.8 |
| 20260510013149 | 60 | 19 | 0.0 | 1.7 | 0.00 | 0.00 | 0.00 | 78 | 1008.8 |
| 20260510012644 | 60 | 82 | 0.0 | 1.7 | 0.00 | 0.00 | 0.00 | 78 | 1008.7 |
| 20260510012145 | 60 | 45 | 0.9 | 1.7 | 0.00 | 0.00 | 0.00 | 78 | 1009.0 |
| 20260510011146 | 61 | 358 | 0.0 | 1.7 | 0.00 | 0.00 | 0.00 | 77 | 1008.9 |
| 20260510010646 | 61 | 102 | 0.9 | 1.7 | 0.00 | 0.00 | 0.00 | 76 | 1009.1 |
| 20260510010147 | 61 | 88 | 1.7 | 1.7 | 0.00 | 0.00 | 0.00 | 77 | 1009.1 |
| 20260510005648 | 61 | 255 | 0.0 | 0.9 | 0.00 | 0.00 | 0.00 | 76 | 1009.1 |
| 20260510005146 | 61 | 260 | 0.0 | 0.9 | 0.00 | 0.00 | 0.00 | 76 | 1009.1 |
| 20260510004646 | 62 | 52 | 0.0 | 1.7 | 0.00 | 0.00 | 0.00 | 76 | 1009.1 |
| 20260510004146 | 62 | 261 | 0.0 | 1.7 | 0.00 | 0.00 | 0.00 | 75 | 1009.2 |
| 20260510003646 | 62 | 276 | 0.0 | 1.7 | 0.00 | 0.00 | 0.00 | 75 | 1009.2 |
| 20260510002646 | 62 | 150 | 0.0 | 1.7 | 0.00 | 0.00 | 0.00 | 75 | 1009.4 |
| 20260510002146 | 62 | 112 | 1.7 | 1.7 | 0.00 | 0.00 | 0.00 | 75 | 1009.4 |
| 20260510001646 | 62 | 107 | 0.9 | 2.6 | 0.00 | 0.00 | 0.00 | 75 | 1009.4 |
| 20260510001146 | 62 | 78 | 0.9 | 2.6 | 0.00 | 0.00 | 0.00 | 75 | 1009.5 |
| 20260510000648 | 62 | 50 | 0.0 | 1.7 | 0.00 | 0.00 | 0.00 | 75 | 1009.6 |
| 20260509235646 | 62 | 76 | 0.9 | 1.7 | 0.00 | 0.00 | 0.00 | 74 | 1010.0 |
| 20260509235147 | 62 | 102 | 1.7 | 1.7 | 0.00 | 0.00 | 0.00 | 74 | 1009.8 |
| 20260509234650 | 62 | 85 | 0.0 | 1.7 | 0.00 | 0.00 | 0.00 | 74 | 1009.8 |
| 20260509234146 | 62 | 124 | 0.9 | 1.7 | 0.00 | 0.00 | 0.00 | 74 | 1009.8 |
| 20260509233646 | 62 | 355 | 0.0 | 1.7 | 0.00 | 0.00 | 0.00 | 74 | 1009.7 |
| 20260509233146 | 62 | 95 | 0.0 | 0.9 | 0.00 | 0.00 | 0.00 | 74 | 1009.8 |
| 20260509232146 | 63 | 65 | 0.0 | 1.7 | 0.00 | 0.00 | 0.00 | 74 | 1009.8 |
| 20260509231646 | 63 | 41 | 0.0 | 1.7 | 0.00 | 0.00 | 0.00 | 74 | 1009.8 |
| 20260509230146 | 63 | 41 | 0.0 | 0.9 | 0.00 | 0.00 | 0.00 | 74 | 1010.1 |
| 20260509225146 | 63 | 134 | 0.0 | 1.7 | 0.00 | 0.00 | 0.00 | 74 | 1010.1 |
| 20260509224647 | 64 | 162 | 0.0 | 1.7 | 0.00 | 0.00 | 0.00 | 74 | 1010.1 |
| 20260509224146 | 64 | 172 | 0.0 | 1.7 | 0.00 | 0.00 | 0.00 | 74 | 1010.1 |
| 20260509223646 | 64 | 10 | 0.0 | 0.9 | 0.00 | 0.00 | 0.00 | 74 | 1010.2 |
| 20260509223145 | 64 | 18 | 0.0 | 0.9 | 0.00 | 0.00 | 0.00 | 73 | 1010.2 |
| 20260509222644 | 64 | 92 | 0.0 | 0.9 | 0.00 | 0.00 | 0.00 | 73 | 1010.2 |
| 20260509222145 | 64 | 166 | 0.0 | 0.0 | 0.00 | 0.00 | 0.00 | 73 | 1010.3 |
| 20260509221633 | 64 | 13 | 0.0 | 0.9 | 0.00 | 0.00 | 0.00 | 73 | 1010.3 |
| 20260509221132 | 64 | 322 | 0.0 | 1.7 | 0.00 | 0.00 | 0.00 | 73 | 1010.2 |
| 20260509220633 | 64 | 89 | 0.0 | 1.7 | 0.00 | 0.00 | 0.00 | 73 | 1010.3 |
| 20260509220133 | 64 | 114 | 0.0 | 1.7 | 0.00 | 0.00 | 0.00 | 72 | 1010.3 |
| 20260509215633 | 64 | 72 | 0.0 | 1.7 | 0.00 | 0.00 | 0.00 | 73 | 1010.2 |
| 20260509215120 | 65 | 134 | 0.0 | 2.6 | 0.00 | 0.00 | 0.00 | 72 | 1010.4 |
| 20260509214621 | 65 | 134 | 0.0 | 2.6 | 0.00 | 0.00 | 0.00 | 71 | 1010.4 |
| 20260509214121 | 65 | 142 | 0.0 | 1.7 | 0.00 | 0.00 | 0.00 | 71 | 1010.4 |
| 20260509213609 | 65 | 134 | 0.0 | 1.7 | 0.00 | 0.00 | 0.00 | 71 | 1010.4 |
| 20260509213056 | 65 | 134 | 0.0 | 1.7 | 0.00 | 0.00 | 0.00 | 71 | 1010.3 |
| 20260509212557 | 65 | 133 | 1.7 | 1.7 | 0.00 | 0.00 | 0.00 | 70 | 1010.3 |
| 20260509212057 | 65 | 134 | 0.0 | 1.7 | 0.00 | 0.00 | 0.00 | 71 | 1010.4 |
| 20260509211557 | 65 | 82 | 0.0 | 2.6 | 0.00 | 0.00 | 0.00 | 72 | 1010.3 |
| 20260509211045 | 65 | 130 | 1.7 | 2.6 | 0.00 | 0.00 | 0.00 | 71 | 1010.3 |
| 20260509210559 | 65 | 149 | 0.9 | 2.6 | 0.00 | 0.00 | 0.00 | 71 | 1010.4 |
| 20260509210057 | 65 | 136 | 0.0 | 2.6 | 0.00 | 0.00 | 0.00 | 71 | 1010.4 |
| 20260509205045 | 66 | 91 | 0.0 | 3.5 | 0.00 | 0.00 | 0.00 | 71 | 1010.3 |
| 20260509204545 | 66 | 130 | 0.9 | 3.5 | 0.00 | 0.00 | 0.00 | 71 | 1010.5 |
| 20260509204045 | 66 | 128 | 1.7 | 3.5 | 0.00 | 0.00 | 0.00 | 71 | 1010.7 |
| 20260509203545 | 66 | 70 | 2.6 | 3.5 | 0.00 | 0.00 | 0.00 | 71 | 1010.5 |
| 20260509203045 | 66 | 92 | 1.7 | 3.5 | 0.00 | 0.00 | 0.00 | 70 | 1010.4 |
| 20260509202545 | 67 | 124 | 1.7 | 3.5 | 0.00 | 0.00 | 0.00 | 70 | 1010.4 |
| 20260509202046 | 67 | 3 | 0.9 | 3.5 | 0.00 | 0.00 | 0.00 | 70 | 1010.4 |
| 20260509201047 | 67 | 124 | 0.0 | 3.5 | 0.00 | 0.00 | 0.00 | 68 | 1010.4 |
| 20260509200544 | 67 | 115 | 2.6 | 3.5 | 0.00 | 0.00 | 0.00 | 68 | 1010.3 |
| 20260509200044 | 67 | 97 | 3.5 | 3.5 | 0.00 | 0.00 | 0.00 | 68 | 1010.4 |
| 20260509195045 | 68 | 106 | 1.7 | 3.5 | 0.00 | 0.00 | 0.00 | 67 | 1010.3 |
| 20260509194544 | 68 | 93 | 1.7 | 3.5 | 0.00 | 0.00 | 0.00 | 67 | 1010.3 |
| 20260509194045 | 68 | 68 | 2.6 | 3.5 | 0.00 | 0.00 | 0.00 | 66 | 1010.1 |
| 20260509193545 | 68 | 103 | 1.7 | 4.3 | 0.00 | 0.00 | 0.00 | 66 | 1010.0 |
| 20260509193045 | 69 | 98 | 2.6 | 4.3 | 0.00 | 0.00 | 0.00 | 65 | 1010.1 |
| 20260509192545 | 69 | 63 | 0.9 | 4.3 | 0.00 | 0.00 | 0.00 | 65 | 1010.2 |
| 20260509192045 | 69 | 103 | 2.6 | 5.2 | 0.00 | 0.00 | 0.00 | 63 | 1010.2 |
| 20260509191552 | 69 | 94 | 2.6 | 5.2 | 0.00 | 0.00 | 0.00 | 63 | 1010.1 |
| 20260509191047 | 70 | 99 | 1.7 | 5.2 | 0.00 | 0.00 | 0.00 | 62 | 1010.1 |
| 20260509190545 | 70 | 117 | 3.5 | 5.2 | 0.00 | 0.00 | 0.00 | 61 | 1009.9 |
| 20260509190045 | 71 | 71 | 2.6 | 5.2 | 0.00 | 0.00 | 0.00 | 60 | 1009.9 |
| 20260509185545 | 71 | 95 | 1.7 | 4.3 | 0.00 | 0.00 | 0.00 | 58 | 1009.7 |
| 20260509185046 | 71 | 84 | 2.6 | 2.6 | 0.00 | 0.00 | 0.00 | 57 | 1009.5 |
| 20260509184545 | 72 | 103 | 1.7 | 2.6 | 0.00 | 0.00 | 0.00 | 55 | 1009.6 |
| 20260509182544 | 73 | 115 | 1.7 | 2.6 | 0.00 | 0.00 | 0.00 | 54 | 1009.5 |
| 20260509182047 | 73 | 74 | 0.9 | 4.3 | 0.00 | 0.00 | 0.00 | 53 | 1009.6 |
| 20260509181544 | 73 | 40 | 0.9 | 4.3 | 0.00 | 0.00 | 0.00 | 54 | 1009.5 |
| 20260509180545 | 74 | 87 | 0.9 | 4.3 | 0.00 | 0.00 | 0.00 | 52 | 1009.5 |
| 20260509175545 | 76 | 108 | 1.7 | 6.1 | 0.00 | 0.00 | 0.00 | 46 | 1009.5 |
| 20260509175045 | 79 | 111 | 3.5 | 7.0 | 0.00 | 0.00 | 0.00 | 39 | 1009.5 |
| 20260509174545 | 80 | 110 | 2.6 | 7.0 | 0.00 | 0.00 | 0.00 | 39 | 1009.3 |
| 20260509173546 | 80 | 120 | 5.2 | 8.7 | 0.00 | 0.00 | 0.00 | 38 | 1009.4 |
| 20260509173045 | 80 | 121 | 3.5 | 11.3 | 0.00 | 0.00 | 0.00 | 38 | 1009.2 |
| 20260509172546 | 77 | 119 | 7.0 | 11.3 | 0.00 | 0.00 | 0.00 | 42 | 1009.5 |
| 20260509172045 | 76 | 127 | 3.5 | 6.1 | 0.00 | 0.00 | 0.00 | 44 | 1009.4 |
| 20260509171545 | 77 | 113 | 3.5 | 6.1 | 0.00 | 0.00 | 0.00 | 41 | 1009.2 |
| 20260509171045 | 78 | 116 | 3.5 | 7.8 | 0.00 | 0.00 | 0.00 | 41 | 1009.6 |
| 20260509170545 | 77 | 68 | 2.6 | 7.8 | 0.00 | 0.00 | 0.00 | 41 | 1010.0 |
| 20260509170044 | 77 | 123 | 4.3 | 7.8 | 0.00 | 0.00 | 0.00 | 42 | 1010.0 |
| 20260509165045 | 78 | 327 | 1.7 | 10.4 | 0.00 | 0.00 | 0.00 | 43 | 1010.1 |
| 20260509164545 | 78 | 103 | 3.5 | 10.4 | 0.00 | 0.00 | 0.00 | 43 | 1010.3 |
| 20260509164045 | 77 | 98 | 3.5 | 10.4 | 0.00 | 0.00 | 0.00 | 41 | 1010.0 |
| 20260509163545 | 77 | 77 | 7.0 | 9.6 | 0.00 | 0.00 | 0.00 | 41 | 1009.9 |
| 20260509163047 | 76 | 125 | 3.5 | 8.7 | 0.00 | 0.00 | 0.00 | 45 | 1010.4 |
| 20260509162548 | 76 | 104 | 3.5 | 9.6 | 0.00 | 0.00 | 0.00 | 46 | 1010.1 |
| 20260509162044 | 75 | 115 | 7.8 | 9.6 | 0.00 | 0.00 | 0.00 | 45 | 1010.2 |
| 20260509161545 | 76 | 110 | 4.3 | 9.6 | 0.00 | 0.00 | 0.00 | 46 | 1010.3 |
| 20260509161045 | 76 | 107 | 5.2 | 9.6 | 0.00 | 0.00 | 0.00 | 46 | 1010.4 |
| 20260509160545 | 77 | 90 | 7.8 | 9.6 | 0.00 | 0.00 | 0.00 | 42 | 1010.3 |
| 20260509160057 | 78 | 93 | 6.1 | 10.4 | 0.00 | 0.00 | 0.00 | 40 | 1010.3 |
| 20260509155545 | 78 | 94 | 6.1 | 10.4 | 0.00 | 0.00 | 0.00 | 40 | 1010.4 |
| 20260509155045 | 79 | 121 | 5.2 | 7.8 | 0.00 | 0.00 | 0.00 | 38 | 1010.6 |
| 20260509154545 | 79 | 122 | 3.5 | 7.0 | 0.00 | 0.00 | 0.00 | 39 | 1010.6 |
| 20260509154045 | 78 | 126 | 3.5 | 9.6 | 0.00 | 0.00 | 0.00 | 37 | 1010.6 |
| 20260509153045 | 77 | 120 | 6.1 | 11.3 | 0.00 | 0.00 | 0.00 | 38 | 1010.7 |
| 20260509152545 | 77 | 119 | 9.6 | 11.3 | 0.00 | 0.00 | 0.00 | 39 | 1010.7 |
| 20260509152045 | 76 | 94 | 6.1 | 9.6 | 0.00 | 0.00 | 0.00 | 38 | 1010.7 |
| 20260509151545 | 76 | 112 | 5.2 | 13.9 | 0.00 | 0.00 | 0.00 | 40 | 1010.8 |
| 20260509151045 | 76 | 113 | 7.0 | 13.9 | 0.00 | 0.00 | 0.00 | 38 | 1010.6 |
| 20260509150545 | 76 | 91 | 1.7 | 12.2 | 0.00 | 0.00 | 0.00 | 38 | 1011.0 |
| 20260509150045 | 76 | 117 | 9.6 | 11.3 | 0.00 | 0.00 | 0.00 | 39 | 1010.8 |
| 20260509145545 | 76 | 121 | 3.5 | 13.9 | 0.00 | 0.00 | 0.00 | 41 | 1011.2 |
| 20260509145045 | 77 | 110 | 4.3 | 13.9 | 0.00 | 0.00 | 0.00 | 40 | 1010.9 |
| 20260509144545 | 77 | 124 | 13.0 | 13.9 | 0.00 | 0.00 | 0.00 | 41 | 1011.0 |
| 20260509144049 | 77 | 88 | 5.2 | 11.3 | 0.00 | 0.00 | 0.00 | 39 | 1010.8 |
| 20260509143045 | 77 | 114 | 3.5 | 13.9 | 0.00 | 0.00 | 0.00 | 42 | 1011.1 |
| 20260509142544 | 76 | 109 | 6.1 | 10.4 | 0.00 | 0.00 | 0.00 | 43 | 1010.9 |
| 20260509142045 | 76 | 101 | 2.6 | 10.4 | 0.00 | 0.00 | 0.00 | 42 | 1011.0 |
| 20260509141545 | 75 | 105 | 5.2 | 10.4 | 0.00 | 0.00 | 0.00 | 44 | 1010.5 |
| 20260509141044 | 76 | 102 | 3.5 | 13.0 | 0.00 | 0.00 | 0.00 | 42 | 1010.5 |
| 20260509140545 | 76 | 72 | 2.6 | 13.0 | 0.00 | 0.00 | 0.00 | 42 | 1010.5 |
| 20260509140044 | 76 | 112 | 6.1 | 9.6 | 0.00 | 0.00 | 0.00 | 45 | 1010.8 |
| 20260509135545 | 76 | 110 | 7.0 | 12.2 | 0.00 | 0.00 | 0.00 | 47 | 1010.4 |
| 20260509135045 | 77 | 65 | 5.2 | 12.2 | 0.00 | 0.00 | 0.00 | 45 | 1010.7 |
| 20260509134546 | 77 | 85 | 3.5 | 8.7 | 0.00 | 0.00 | 0.00 | 46 | 1010.8 |
| 20260509134045 | 77 | 226 | 0.0 | 12.2 | 0.00 | 0.00 | 0.00 | 46 | 1010.6 |
| 20260509133045 | 76 | 124 | 7.8 | 8.7 | 0.00 | 0.00 | 0.00 | 47 | 1010.6 |
| 20260509132545 | 75 | 129 | 7.0 | 9.6 | 0.00 | 0.00 | 0.00 | 50 | 1010.8 |
| 20260509132045 | 75 | 71 | 4.3 | 9.6 | 0.00 | 0.00 | 0.00 | 48 | 1010.8 |
| 20260509131546 | 76 | 90 | 4.3 | 8.7 | 0.00 | 0.00 | 0.00 | 47 | 1010.8 |
| 20260509131045 | 77 | 48 | 2.6 | 8.7 | 0.00 | 0.00 | 0.00 | 45 | 1010.7 |
| 20260509130545 | 76 | 137 | 0.0 | 9.6 | 0.00 | 0.00 | 0.00 | 47 | 1010.9 |
| 20260509130044 | 76 | 121 | 6.1 | 9.6 | 0.00 | 0.00 | 0.00 | 50 | 1011.0 |
| 20260509125547 | 75 | 134 | 3.5 | 6.1 | 0.00 | 0.00 | 0.00 | 50 | 1010.8 |
| 20260509125047 | 75 | 115 | 1.7 | 12.2 | 0.00 | 0.00 | 0.00 | 49 | 1011.3 |
| 20260509124545 | 75 | 96 | 5.2 | 12.2 | 0.00 | 0.00 | 0.00 | 49 | 1011.6 |
| 20260509124045 | 76 | 132 | 3.5 | 8.7 | 0.00 | 0.00 | 0.00 | 48 | 1011.4 |
| 20260509123545 | 76 | 112 | 5.2 | 8.7 | 0.00 | 0.00 | 0.00 | 48 | 1011.7 |
| 20260509123045 | 75 | 137 | 3.5 | 9.6 | 0.00 | 0.00 | 0.00 | 47 | 1011.8 |
| 20260509122545 | 75 | 123 | 4.3 | 9.6 | 0.00 | 0.00 | 0.00 | 47 | 1011.8 |
| 20260509122045 | 75 | 114 | 7.0 | 9.6 | 0.00 | 0.00 | 0.00 | 51 | 1011.9 |
| 20260509121545 | 74 | 131 | 2.6 | 9.6 | 0.00 | 0.00 | 0.00 | 50 | 1011.7 |
| 20260509121048 | 74 | 96 | 3.5 | 8.7 | 0.00 | 0.00 | 0.00 | 48 | 1011.8 |
| 20260509120545 | 74 | 123 | 2.6 | 11.3 | 0.00 | 0.00 | 0.00 | 50 | 1012.2 |
| 20260509120045 | 74 | 88 | 3.5 | 11.3 | 0.00 | 0.00 | 0.00 | 49 | 1011.9 |
| 20260509115045 | 73 | 126 | 7.8 | 11.3 | 0.00 | 0.00 | 0.00 | 53 | 1012.2 |
| 20260509114545 | 74 | 98 | 3.5 | 8.7 | 0.00 | 0.00 | 0.00 | 53 | 1012.3 |
| 20260509114044 | 73 | 69 | 5.2 | 7.8 | 0.00 | 0.00 | 0.00 | 54 | 1012.1 |
| 20260509113045 | 73 | 54 | 2.6 | 9.6 | 0.00 | 0.00 | 0.00 | 54 | 1012.5 |
| 20260509112545 | 72 | 114 | 3.5 | 9.6 | 0.00 | 0.00 | 0.00 | 55 | 1012.4 |
| 20260509112045 | 72 | 46 | 3.5 | 8.7 | 0.00 | 0.00 | 0.00 | 54 | 1012.5 |
| 20260509111546 | 72 | 133 | 1.7 | 8.7 | 0.00 | 0.00 | 0.00 | 57 | 1012.5 |
| 20260509110545 | 72 | 128 | 4.3 | 7.0 | 0.00 | 0.00 | 0.00 | 56 | 1012.4 |
| 20260509110059 | 71 | 121 | 3.5 | 8.7 | 0.00 | 0.00 | 0.00 | 57 | 1012.5 |
| 20260509105545 | 71 | 84 | 6.1 | 8.7 | 0.00 | 0.00 | 0.00 | 55 | 1012.7 |
| 20260509105050 | 71 | 114 | 1.7 | 7.0 | 0.00 | 0.00 | 0.00 | 58 | 1012.8 |
| 20260509104548 | 71 | 104 | 4.3 | 7.8 | 0.00 | 0.00 | 0.00 | 57 | 1012.8 |
| 20260509104044 | 71 | 116 | 5.2 | 9.6 | 0.00 | 0.00 | 0.00 | 56 | 1012.9 |
| 20260509103545 | 70 | 114 | 3.5 | 9.6 | 0.00 | 0.00 | 0.00 | 58 | 1013.0 |
| 20260509103045 | 70 | 91 | 5.2 | 9.6 | 0.00 | 0.00 | 0.00 | 57 | 1012.7 |
| 20260509102545 | 70 | 299 | 2.6 | 9.6 | 0.00 | 0.00 | 0.00 | 57 | 1012.9 |
| 20260509102045 | 70 | 111 | 6.1 | 9.6 | 0.00 | 0.00 | 0.00 | 57 | 1012.9 |
| 20260509101545 | 70 | 101 | 5.2 | 7.0 | 0.00 | 0.00 | 0.00 | 59 | 1012.9 |
| 20260509101045 | 69 | 96 | 3.5 | 9.6 | 0.00 | 0.00 | 0.00 | 58 | 1013.1 |
| 20260509100546 | 70 | 335 | 0.0 | 9.6 | 0.00 | 0.00 | 0.00 | 59 | 1013.1 |
| 20260509100045 | 69 | 303 | 1.7 | 8.7 | 0.00 | 0.00 | 0.00 | 60 | 1012.8 |
| 20260509095546 | 69 | 70 | 2.6 | 8.7 | 0.00 | 0.00 | 0.00 | 61 | 1013.1 |
| 20260509095044 | 69 | 333 | 2.6 | 5.2 | 0.00 | 0.00 | 0.00 | 61 | 1013.2 |
| 20260509094545 | 69 | 86 | 1.7 | 4.3 | 0.00 | 0.00 | 0.00 | 62 | 1013.0 |
| 20260509094045 | 69 | 302 | 0.0 | 4.3 | 0.00 | 0.00 | 0.00 | 63 | 1013.2 |
| 20260509093545 | 69 | 242 | 1.7 | 4.3 | 0.00 | 0.00 | 0.00 | 62 | 1013.1 |
| 20260509093045 | 69 | 117 | 1.7 | 4.3 | 0.00 | 0.00 | 0.00 | 62 | 1013.3 |
| 20260509092548 | 68 | 174 | 2.6 | 5.2 | 0.00 | 0.00 | 0.00 | 64 | 1013.2 |
| 20260509092045 | 68 | 128 | 1.7 | 5.2 | 0.00 | 0.00 | 0.00 | 65 | 1013.3 |
| 20260509091545 | 68 | 123 | 4.3 | 7.8 | 0.00 | 0.00 | 0.00 | 66 | 1013.2 |
| 20260509091047 | 68 | 138 | 1.7 | 7.8 | 0.00 | 0.00 | 0.00 | 65 | 1013.4 |
| 20260509090058 | 67 | 127 | 3.5 | 6.1 | 0.00 | 0.00 | 0.00 | 66 | 1013.1 |
| 20260509085545 | 67 | 129 | 1.7 | 5.2 | 0.00 | 0.00 | 0.00 | 67 | 1013.2 |
| 20260509085045 | 67 | 206 | 0.0 | 6.1 | 0.00 | 0.00 | 0.00 | 68 | 1013.4 |
| 20260509084545 | 66 | 113 | 3.5 | 6.1 | 0.00 | 0.00 | 0.00 | 68 | 1013.4 |
| 20260509083557 | 65 | 141 | 4.3 | 6.1 | 0.00 | 0.00 | 0.00 | 69 | 1013.1 |
| 20260509083044 | 65 | 87 | 3.5 | 7.8 | 0.00 | 0.00 | 0.00 | 67 | 1013.2 |
| 20260509082545 | 65 | 133 | 1.7 | 7.8 | 0.00 | 0.00 | 0.00 | 69 | 1013.6 |
| 20260509082044 | 65 | 120 | 4.3 | 6.1 | 0.00 | 0.00 | 0.00 | 70 | 1013.3 |
| 20260509081547 | 64 | 102 | 2.6 | 7.8 | 0.00 | 0.00 | 0.00 | 70 | 1013.6 |
| 20260509081045 | 64 | 142 | 1.7 | 7.8 | 0.00 | 0.00 | 0.00 | 70 | 1013.7 |
| 20260509080544 | 63 | 126 | 2.6 | 7.0 | 0.00 | 0.00 | 0.00 | 70 | 1013.7 |
| 20260509080059 | 63 | 88 | 1.7 | 7.8 | 0.00 | 0.00 | 0.00 | 70 | 1013.5 |
| 20260509075545 | 63 | 94 | 1.7 | 8.7 | 0.00 | 0.00 | 0.00 | 70 | 1013.8 |
| 20260509075045 | 63 | 117 | 6.1 | 8.7 | 0.00 | 0.00 | 0.00 | 69 | 1013.9 |
| 20260509074545 | 63 | 130 | 4.3 | 7.0 | 0.00 | 0.00 | 0.00 | 69 | 1013.7 |
| 20260509073545 | 63 | 104 | 2.6 | 6.1 | 0.00 | 0.00 | 0.00 | 68 | 1013.9 |
| 20260509072545 | 64 | 114 | 2.6 | 7.8 | 0.00 | 0.00 | 0.00 | 67 | 1013.9 |
| 20260509072047 | 64 | 87 | 4.3 | 7.8 | 0.00 | 0.00 | 0.00 | 65 | 1014.0 |
| 20260509071545 | 65 | 94 | 4.3 | 7.8 | 0.00 | 0.00 | 0.00 | 63 | 1014.0 |
| 20260509071044 | 65 | 122 | 2.6 | 7.8 | 0.00 | 0.00 | 0.00 | 66 | 1013.9 |
| 20260509070545 | 64 | 105 | 3.5 | 6.1 | 0.00 | 0.00 | 0.00 | 66 | 1013.7 |
| 20260509070045 | 63 | 124 | 4.3 | 6.1 | 0.00 | 0.00 | 0.00 | 67 | 1013.9 |
| 20260509065545 | 62 | 118 | 4.3 | 7.0 | 0.00 | 0.00 | 0.00 | 68 | 1013.8 |
| 20260509065045 | 63 | 115 | 3.5 | 7.0 | 0.00 | 0.00 | 0.00 | 66 | 1013.7 |
| 20260509064545 | 62 | 122 | 3.5 | 7.0 | 0.00 | 0.00 | 0.00 | 67 | 1013.9 |
| 20260509063545 | 62 | 118 | 1.7 | 7.8 | 0.00 | 0.00 | 0.00 | 69 | 1013.8 |
| 20260509063045 | 61 | 107 | 4.3 | 7.8 | 0.00 | 0.00 | 0.00 | 68 | 1013.9 |
| 20260509062548 | 62 | 111 | 6.1 | 7.0 | 0.00 | 0.00 | 0.00 | 67 | 1013.8 |
| 20260509062044 | 61 | 132 | 5.2 | 5.2 | 0.00 | 0.00 | 0.00 | 71 | 1013.9 |
| 20260509061545 | 60 | 126 | 2.6 | 7.0 | 0.00 | 0.00 | 0.00 | 72 | 1013.5 |
| 20260509060545 | 58 | 93 | 3.5 | 5.2 | 0.00 | 0.00 | 0.00 | 74 | 1013.4 |
| 20260509055548 | 56 | 112 | 0.9 | 3.5 | 0.00 | 0.00 | 0.00 | 81 | 1013.1 |
| 20260509055045 | 55 | 74 | 0.9 | 4.3 | 0.00 | 0.00 | 0.00 | 81 | 1013.4 |
| 20260509054545 | 55 | 87 | 1.7 | 4.3 | 0.00 | 0.00 | 0.00 | 82 | 1013.3 |
| 20260509054045 | 55 | 92 | 2.6 | 5.2 | 0.00 | 0.00 | 0.00 | 81 | 1013.2 |
| 20260509053545 | 55 | 125 | 1.7 | 5.2 | 0.00 | 0.00 | 0.00 | 81 | 1013.6 |
| 20260509053046 | 55 | 125 | 3.5 | 4.3 | 0.00 | 0.00 | 0.00 | 79 | 1013.4 |
| 20260509052045 | 56 | 124 | 1.7 | 4.3 | 0.00 | 0.00 | 0.00 | 80 | 1013.4 |
| 20260509051544 | 55 | 126 | 3.5 | 4.3 | 0.00 | 0.00 | 0.00 | 81 | 1013.2 |
| 20260509051044 | 54 | 113 | 2.6 | 2.6 | 0.00 | 0.00 | 0.00 | 82 | 1013.1 |
| 20260509045545 | 53 | 123 | 2.6 | 2.6 | 0.00 | 0.00 | 0.00 | 86 | 1013.0 |
| 20260509044545 | 52 | 114 | 1.7 | 1.7 | 0.00 | 0.00 | 0.00 | 86 | 1012.9 |
| 20260509043547 | 52 | 133 | 1.7 | 1.7 | 0.00 | 0.00 | 0.00 | 87 | 1013.0 |
| 20260509043045 | 51 | 128 | 1.7 | 1.7 | 0.00 | 0.00 | 0.00 | 87 | 1012.6 |
| 20260509042045 | 51 | 51 | 0.0 | 1.7 | 0.00 | 0.00 | 0.00 | 87 | 1013.0 |
| 20260509041545 | 51 | 134 | 0.0 | 1.7 | 0.00 | 0.00 | 0.00 | 88 | 1012.8 |
| 20260509041049 | 51 | 10 | 0.9 | 1.7 | 0.00 | 0.00 | 0.00 | 87 | 1013.0 |
| 20260509040545 | 51 | 73 | 0.9 | 1.7 | 0.00 | 0.00 | 0.00 | 87 | 1012.9 |
| 20260509040045 | 51 | 277 | 0.0 | 1.7 | 0.00 | 0.00 | 0.00 | 86 | 1012.7 |
| 20260509035545 | 51 | 264 | 0.9 | 1.7 | 0.00 | 0.00 | 0.00 | 86 | 1012.9 |
| 20260509035045 | 51 | 125 | 0.0 | 1.7 | 0.00 | 0.00 | 0.00 | 86 | 1013.0 |
| 20260509034545 | 51 | 48 | 0.9 | 1.7 | 0.00 | 0.00 | 0.00 | 85 | 1013.0 |
| 20260509033537 | 52 | 47 | 1.7 | 1.7 | 0.00 | 0.00 | 0.00 | 83 | 1013.2 |
| 20260509033037 | 52 | 47 | 0.9 | 0.9 | 0.00 | 0.00 | 0.00 | 83 | 1012.9 |
| 20260509032541 | 52 | 89 | 0.0 | 0.9 | 0.00 | 0.00 | 0.00 | 83 | 1013.2 |
| 20260509032038 | 52 | 100 | 0.0 | 0.9 | 0.00 | 0.00 | 0.00 | 83 | 1013.0 |
| 20260509031536 | 52 | 108 | 0.0 | 1.7 | 0.00 | 0.00 | 0.00 | 83 | 1013.1 |
| 20260509030028 | 52 | 77 | 1.7 | 5.2 | 0.00 | 0.00 | 0.00 | 84 | 1013.1 |
| 20260509025525 | 52 | 96 | 2.6 | 5.2 | 0.00 | 0.00 | 0.00 | 84 | 1013.2 |
| 20260509025025 | 52 | 87 | 1.7 | 5.2 | 0.00 | 0.00 | 0.00 | 84 | 1012.9 |
| 20260509024525 | 52 | 73 | 2.6 | 5.2 | 0.00 | 0.00 | 0.00 | 84 | 1013.1 |
| 20260509024025 | 52 | 89 | 4.3 | 5.2 | 0.00 | 0.00 | 0.00 | 84 | 1012.9 |
| 20260509023525 | 52 | 88 | 4.3 | 5.2 | 0.00 | 0.00 | 0.00 | 84 | 1013.1 |
| 20260509023025 | 52 | 82 | 3.5 | 4.3 | 0.00 | 0.00 | 0.00 | 84 | 1013.2 |
| 20260509022527 | 52 | 78 | 2.6 | 4.3 | 0.00 | 0.00 | 0.00 | 83 | 1013.2 |
| 20260509022025 | 52 | 59 | 2.6 | 3.5 | 0.00 | 0.00 | 0.00 | 83 | 1013.1 |